Weather History for KMZZ - November, 2012

Change the Weather History Date:

Thursday, November 22, 2012

  Actual Average (KMIE) Record (KMIE)
Temperature  
Mean Temperature 48 °F 40 °F  
Max Temperature 92 °F 48 °F 69 °F (1990)
Min Temperature 36 °F 32 °F 15 °F (1984)
Degree Days  
Heating Degree Days 17 25  
Month to date heating degree days 452  
Since 1 July heating degree days 916  
Cooling Degree Days 0 0  
Month to date cooling degree days 0  
Year to date cooling degree days 955  
Moisture  
Dew Point 39 °F    
Average Humidity 74    
Maximum Humidity 98    
Minimum Humidity 48    
Precipitation  
Precipitation 0.00 in 0.12 in 1.17 in (2011)
Month to date precipitation 2.53  
Year to date precipitation 36.32  
Sea Level Pressure  
Sea Level Pressure 30.08 in    
Wind  
Wind Speed 8 mph (South)    
Max Wind Speed 21 mph    
Max Gust Speed 26 mph    
Visibility 6 miles    
Events      
T = Trace of Precipitation, MM = Missing Value Source: NWS Daily Summary

Daily Weather History Graph

Daily Weather History Graph

Search for Another Location

Airport or City:

Trip Planner

Search our weather history database for the weather conditions in past years. The results will help you decide how hot, cold, wet, or windy it might be!

Date:

Astronomy

Nov. 22, 2012 Rise Set
Actual Time 7:37 AM EST 5:20 PM EST
Civil Twilight 7:07 AM EST 5:49 PM EST
Nautical Twilight 6:34 AM EST 6:23 PM EST
Astronomical Twilight 6:01 AM EST 6:55 PM EST
Moon 2:06 PM EST (11/22) 1:55 AM EST (11/22)
Length of Visible Light 10h 42m
Length of Day
9h 42m
Waxing Gibbous, 71% of the Moon is Illuminated
Nov 22
Waxing Gibbous
Nov 28
Full
Dec 6
Last Quarter
Dec 13
New
Dec 20
First Quarter

Hourly Weather History & Observations

Time (EST) Temp. Windchill Dew Point Humidity Pressure Visibility Wind Dir Wind Speed Gust Speed Precip Events Conditions
12:15 AM 36.5 °F - 35.8 °F 97% 30.19 in 2.5 mi Calm Calm - N/A   Clear
12:35 AM 37.4 °F 34.9 °F 36.7 °F 97% 30.20 in 2.5 mi South 3.5 mph - N/A   Clear
12:55 AM 37.2 °F 33.6 °F 36.5 °F 97% 30.19 in 2.0 mi South 4.6 mph - N/A   Clear
1:15 AM 36.9 °F 34.3 °F 36.0 °F 97% 30.19 in 2.0 mi South 3.5 mph - N/A   Clear
1:35 AM 36.7 °F 32.9 °F 35.8 °F 97% 30.19 in 1.8 mi South 4.6 mph - N/A   Mist
1:55 AM 37.6 °F 34.0 °F 36.9 °F 97% 30.18 in 2.0 mi SSE 4.6 mph - N/A   Clear
2:15 AM 37.2 °F 33.6 °F 36.5 °F 97% 30.18 in 2.5 mi South 4.6 mph - N/A   Clear
2:35 AM 36.9 °F 31.4 °F 36.1 °F 97% 30.18 in 2.5 mi SSE 6.9 mph - N/A   Clear
2:55 AM 36.7 °F 32.9 °F 36.0 °F 97% 30.18 in 2.0 mi SSE 4.6 mph - N/A   Clear
3:15 AM 36.1 °F 31.4 °F 35.6 °F 98% 30.18 in 2.5 mi South 5.8 mph - N/A   Clear
3:35 AM 36.7 °F 32.0 °F 36.1 °F 98% 30.18 in 2.5 mi South 5.8 mph - N/A   Clear
3:55 AM 37.6 °F 33.1 °F 36.9 °F 97% 30.17 in 3.0 mi South 5.8 mph - N/A   Clear
4:15 AM 37.4 °F 32.8 °F 36.5 °F 97% 30.17 in 2.0 mi South 5.8 mph - N/A   Clear
4:35 AM 36.7 °F 32.0 °F 36.0 °F 97% 30.17 in 2.0 mi South 5.8 mph - N/A   Clear
4:55 AM 36.7 °F 32.9 °F 36.0 °F 97% 30.16 in 1.8 mi South 4.6 mph - N/A   Mist
5:15 AM 36.9 °F 33.1 °F 36.1 °F 97% 30.16 in 2.0 mi South 4.6 mph - N/A   Clear
5:35 AM 36.9 °F 32.2 °F 36.1 °F 97% 30.17 in 1.5 mi South 5.8 mph - N/A   Mist
5:55 AM 37.0 °F 32.4 °F 36.5 °F 98% 30.17 in 1.8 mi South 5.8 mph - N/A   Mist
6:15 AM 37.4 °F 33.8 °F 36.9 °F 98% 30.16 in 1.8 mi South 4.6 mph - N/A   Mist
6:35 AM 37.8 °F 34.2 °F 37.2 °F 98% 30.16 in 2.0 mi South 4.6 mph - N/A   Clear
6:55 AM 37.4 °F 32.8 °F 36.7 °F 97% 30.16 in 1.8 mi South 5.8 mph - N/A   Mist
7:15 AM 37.4 °F 32.8 °F 36.7 °F 97% 30.16 in 2.0 mi South 5.8 mph - N/A   Clear
7:35 AM 38.1 °F 32.9 °F 37.4 °F 97% 30.16 in 2.5 mi South 6.9 mph - N/A   Clear
8:15 AM 39.2 °F 34.2 °F 38.1 °F 96% 30.16 in 2.5 mi South 6.9 mph - N/A   Clear
8:35 AM 40.5 °F 35.1 °F 38.7 °F 93% 30.16 in 2.5 mi South 8.1 mph - N/A   Clear
8:55 AM 41.5 °F 36.4 °F 39.0 °F 91% 30.16 in 2.5 mi South 8.1 mph - N/A   Clear
9:15 AM 42.6 °F 36.8 °F 39.2 °F 88% 30.15 in 3.0 mi South 10.4 mph - N/A   Clear
9:35 AM 44.1 °F 39.0 °F 39.9 °F 85% 30.15 in 3.0 mi South 9.2 mph - N/A   Clear
9:55 AM 46.2 °F 42.2 °F 41.2 °F 83% 30.15 in 5.0 mi South 8.1 mph - N/A   Haze
10:15 AM 48.4 °F - 42.3 °F 79% 30.14 in 5.0 mi SSW 12.7 mph - N/A   Haze
10:35 AM 50.0 °F - 43.0 °F 77% 30.14 in 5.0 mi SSW 10.4 mph 16.1 mph N/A   Haze
10:55 AM 51.8 °F - 44.1 °F 75% 30.14 in 5.0 mi SSW 11.5 mph - N/A   Haze
11:15 AM 53.1 °F - 44.4 °F 72% 30.13 in 7.0 mi SSW 16.1 mph 20.7 mph N/A   Clear
11:35 AM 54.3 °F - 44.2 °F 69% 30.13 in 7.0 mi SSW 18.4 mph 21.9 mph N/A   Clear
11:55 AM 55.8 °F - 44.1 °F 65% 30.11 in 7.0 mi SSW 16.1 mph 23.0 mph N/A   Clear
12:15 PM 56.7 °F - 43.3 °F 61% 30.11 in 7.0 mi SSW 18.4 mph 23.0 mph N/A   Clear
12:35 PM 57.0 °F - 42.8 °F 59% 30.10 in 10.0 mi SSW 20.7 mph - N/A   Clear
12:55 PM 57.6 °F - 43.0 °F 58% 30.08 in 7.0 mi SSW 16.1 mph 23.0 mph N/A   Clear
1:15 PM 58.5 °F - 42.6 °F 56% 30.08 in 7.0 mi SSW 20.7 mph - N/A   Clear
1:35 PM 58.8 °F - 42.3 °F 54% 30.06 in 7.0 mi SSW 17.3 mph 20.7 mph N/A   Clear
1:55 PM 59.4 °F - 42.1 °F 53% 30.05 in 10.0 mi SSW 15.0 mph - N/A   Clear
2:15 PM 59.4 °F - 42.3 °F 53% 30.04 in 10.0 mi SSW 16.1 mph 21.9 mph N/A   Clear
2:35 PM 60.1 °F - 42.6 °F 53% 30.04 in 7.0 mi South 15.0 mph 20.7 mph N/A   Clear
2:55 PM 59.7 °F - 42.1 °F 52% 30.03 in 7.0 mi South 12.7 mph - N/A   Clear
3:15 PM 59.9 °F - 42.3 °F 52% 30.02 in 10.0 mi South 13.8 mph - N/A   Clear
3:35 PM 60.6 °F - 41.0 °F 48% 30.02 in 10.0 mi SSW 16.1 mph - N/A   Clear
3:55 PM 59.7 °F - 40.6 °F 49% 30.01 in 7.0 mi SSW 15.0 mph - N/A   Clear
4:15 PM 59.4 °F - 40.6 °F 50% 30.01 in 10.0 mi SSW 12.7 mph - N/A   Clear
4:35 PM 58.8 °F - 40.3 °F 50% 30.01 in 7.0 mi SSW 12.7 mph - N/A   Clear
4:55 PM 57.7 °F - 39.7 °F 51% 30.00 in 10.0 mi SSW 11.5 mph - N/A   Scattered Clouds
5:15 PM 57.0 °F - 39.7 °F 52% 29.99 in 7.0 mi South 9.2 mph - N/A   Clear
5:35 PM 56.3 °F - 40.6 °F 56% 30.00 in 10.0 mi South 9.2 mph - N/A   Clear
5:55 PM 55.2 °F - 41.2 °F 59% 29.99 in 10.0 mi South 10.4 mph - N/A   Scattered Clouds
6:15 PM 54.7 °F - 41.5 °F 61% 29.98 in 10.0 mi South 9.2 mph - N/A   Mostly Cloudy
6:35 PM 54.9 °F - 41.4 °F 60% 29.98 in 10.0 mi South 12.7 mph - N/A   Mostly Cloudy
6:55 PM 54.5 °F - 41.4 °F 61% 29.98 in 10.0 mi South 11.5 mph - N/A   Scattered Clouds
7:15 PM 54.1 °F - 41.2 °F 62% 29.98 in 10.0 mi South 9.2 mph - N/A   Clear
7:35 PM 54.1 °F - 40.5 °F 60% 29.97 in 10.0 mi South 11.5 mph - N/A   Clear
7:55 PM 54.0 °F - 40.1 °F 59% 29.97 in 10.0 mi South 13.8 mph 17.3 mph N/A   Clear
8:15 PM 53.8 °F - 39.7 °F 59% 29.96 in 7.0 mi South 12.7 mph 18.4 mph N/A   Clear
8:35 PM 54.3 °F - 38.7 °F 55% 29.95 in 10.0 mi SSW 15.0 mph - N/A   Clear
8:55 PM 54.1 °F - 38.1 °F 55% 29.95 in 10.0 mi South 15.0 mph - N/A   Clear
9:15 PM 53.8 °F - 37.8 °F 55% 29.94 in 10.0 mi SSW 17.3 mph 21.9 mph N/A   Clear
9:35 PM 53.4 °F - 37.9 °F 56% 29.93 in 10.0 mi SSW 19.6 mph 26.5 mph N/A   Clear
9:55 PM 53.2 °F - 37.9 °F 56% 29.94 in 10.0 mi SSW 17.3 mph - N/A   Scattered Clouds
10:15 PM 52.9 °F - 38.3 °F 58% 29.94 in 10.0 mi SSW 18.4 mph 23.0 mph N/A   Mostly Cloudy
10:35 PM 53.1 °F - 38.5 °F 58% 29.94 in 10.0 mi SSW 17.3 mph 24.2 mph N/A   Overcast
10:55 PM 52.7 °F - 38.7 °F 59% 29.93 in 10.0 mi SSW 15.0 mph - N/A   Mostly Cloudy
11:15 PM 52.2 °F - 39.0 °F 61% 29.93 in 10.0 mi SSW 12.7 mph - N/A   Mostly Cloudy
11:35 PM 52.3 °F - 39.4 °F 61% 29.92 in 10.0 mi SW 12.7 mph - N/A   Overcast
11:55 PM 53.1 °F - 40.1 °F 61% 29.92 in 10.0 mi SW 18.4 mph 24.2 mph N/A   Overcast